Location: Red Deer
(52.2681°N, 113.8112°W)
Time: 16:06:50
(UTC-06:00)

Envisat - Pass Details

Date: 28 April 2024
Orbit: 762 x 764 km, 98.3° (Epoch: 27 May)

Event Time Altitude Azimuth Distance (km) Brightness Sun altitude
Rises 04:34:14 0° 18° (NNE) 3,240 7.5 -12.7°
Reaches altitude 10° 04:36:39 10° 25° (NNE) 2,309 6.7 -12.4°
Maximum altitude 04:41:32 45° 98° (E) 1,029 4.0 -11.9°
Drops below altitude 10° 04:46:22 10° 172° (S) 2,292 5.1 -11.4°
Enters shadow 04:48:34 - 178° (S) 3,138 5.8 -11.1°
